Change the Weather History Date:

Tuesday, November 5, 2013

  Actual Average Record
Temperature  
Mean Temperature 42 °F -  
Max Temperature 47 °F 54 °F 71 °F (1980)
Min Temperature 36 °F 31 °F 8 °F (2007)
Degree Days  
Heating Degree Days 23 23  
Month to date heating degree days 117 109  
Since 1 July heating degree days 728 728  
Cooling Degree Days 0 0  
Month to date cooling degree days 0 0  
Year to date cooling degree days 1138 680  
Moisture  
Dew Point 24 °F    
Average Humidity 60    
Maximum Humidity 81    
Minimum Humidity 38    
Precipitation  
Precipitation T in 0.04 in 0.09 in (1983)
Month to date precipitation 0.06 0.20  
Year to date precipitation 4.29 8.45  
Sea Level Pressure  
Sea Level Pressure 30.24 in    
Wind  
Wind Speed 9 mph (SW)    
Max Wind Speed 13 mph    
Max Gust Speed 17 mph    
Visibility 10 miles    
Events Rain , Snow    
T = Trace of Precipitation, MM = Missing Value Source: NWS Daily Summary

Daily Weather History Graph

Daily Weather History Graph

Search for Another Location

Airport or City:

Trip Planner

Search our weather history database for the weather conditions in past years. The results will help you decide how hot, cold, wet, or windy it might be!

Date:

Astronomy

Nov. 05, 2013 Rise Set
Actual Time 7:16 AM MST 5:25 PM MST
Civil Twilight 6:47 AM MST 5:55 PM MST
Nautical Twilight 6:13 AM MST 6:28 PM MST
Astronomical Twilight 5:40 AM MST 7:01 PM MST
Moon 9:38 AM MST (11/5) 7:29 PM MST (11/5)
Length of Visible Light 11h 07m
Length of Day
10h 08m
Waxing Crescent, 7% of the Moon is Illuminated
Nov 5
Waxing Crescent
Nov 9
First Quarter
Nov 17
Full
Nov 25
Last Quarter
Dec 2
New

Hourly Weather History & Observations

Time (MST) Temp. Windchill Dew Point Humidity Pressure Visibility Wind Dir Wind Speed Gust Speed Precip Events Conditions
12:53 AM 28.0 °F 18.1 °F 21.9 °F 78% 30.15 in 10.0 mi SSW 11.5 mph - N/A   Clear
1:53 AM 26.1 °F 15.0 °F 21.0 °F 81% 30.16 in 10.0 mi SSW 12.7 mph - N/A   Clear
2:53 AM 26.1 °F 16.2 °F 19.9 °F 78% 30.17 in 10.0 mi SSW 10.4 mph - N/A   Clear
3:53 AM 25.0 °F 14.2 °F 19.0 °F 78% 30.19 in 10.0 mi SSW 11.5 mph - N/A   Clear
4:53 AM 25.0 °F 14.2 °F 19.0 °F 78% 30.21 in 10.0 mi SSW 11.5 mph - N/A   Clear
5:53 AM 25.0 °F 14.2 °F 19.0 °F 78% 30.24 in 10.0 mi SSW 11.5 mph - N/A   Clear
6:53 AM 23.0 °F 12.4 °F 18.0 °F 81% 30.25 in 10.0 mi South 10.4 mph - N/A   Clear
7:53 AM 25.0 °F 14.8 °F 19.0 °F 78% 30.28 in 10.0 mi South 10.4 mph - N/A   Clear
8:53 AM 30.0 °F 21.7 °F 21.9 °F 72% 30.29 in 10.0 mi SSW 9.2 mph - N/A   Clear
9:53 AM 37.0 °F 31.0 °F 21.9 °F 54% 30.28 in 10.0 mi SW 8.1 mph - N/A   Clear
10:47 AM 39.2 °F 33.0 °F 21.2 °F 49% 30.27 in 10.0 mi WSW 9.2 mph - N/A   Clear
10:53 AM 39.9 °F 34.5 °F 21.0 °F 47% 30.29 in 10.0 mi West 8.1 mph - N/A   Clear
11:47 AM 42.8 °F 36.6 °F 21.2 °F 42% 30.27 in 10.0 mi West 11.5 mph 17.3 mph N/A   Clear
12:49 PM 42.8 °F 37.5 °F 23.0 °F 46% 30.25 in 10.0 mi West 9.2 mph - N/A   Partly Cloudy
12:53 PM 44.1 °F 38.6 °F 24.1 °F 45% 30.25 in - West 10.4 mph - N/A   Unknown
1:53 PM 46.0 °F 41.4 °F 23.0 °F 40% 30.24 in 10.0 mi SW 9.2 mph - N/A   Mostly Cloudy
2:53 PM 45.0 °F 43.5 °F 24.1 °F 44% 30.23 in 10.0 mi Variable 3.5 mph - N/A   Overcast
3:53 PM 46.0 °F 42.5 °F 25.0 °F 44% 30.22 in 10.0 mi South 6.9 mph - N/A   Overcast
4:53 PM 45.0 °F 40.6 °F 26.1 °F 48% 30.21 in 10.0 mi South 8.1 mph - N/A   Scattered Clouds
5:53 PM 43.0 °F - 27.0 °F 53% 30.21 in 10.0 mi Calm Calm - N/A   Overcast
6:53 PM 42.1 °F 39.2 °F 25.0 °F 51% 30.23 in 10.0 mi ENE 4.6 mph - N/A   Overcast
7:53 PM 39.9 °F - 25.0 °F 55% 30.23 in 10.0 mi Calm Calm - N/A   Overcast
8:53 PM 39.9 °F 33.4 °F 26.1 °F 58% 30.25 in 10.0 mi West 10.4 mph - N/A   Overcast
9:53 PM 37.9 °F 33.5 °F 30.0 °F 73% 30.28 in 9.0 mi West 5.8 mph - 0.00 in Snow Light Snow
10:03 PM 37.0 °F 34.5 °F 30.0 °F 76% 30.27 in 8.0 mi WSW 3.5 mph - 0.00 in Snow Light Snow
10:14 PM 37.0 °F 34.5 °F 30.9 °F 79% 30.27 in 10.0 mi WSW 3.5 mph - 0.00 in Rain Light Rain
10:53 PM 36.0 °F 30.3 °F 32.0 °F 86% 30.26 in 10.0 mi SE 6.9 mph - 0.00 in   Overcast
11:53 PM 39.9 °F 32.5 °F 34.0 °F 79% 30.25 in 10.0 mi South 12.7 mph - 0.00 in   Overcast